TimePST,TemperatureF,Dew PointF,Humidity,Sea Level PressureIn,VisibilityMPH,Wind Direction,Wind SpeedMPH,Gust SpeedMPH,PrecipitationIn,Events,Conditions,WindDirDegrees,DateUTC
12:54 AM,48.9,33.1,54,29.62,10.0,South,24.2,35.7,N/A,,Mostly Cloudy,180,2012-12-20 08:54:00
1:54 AM,50.0,33.1,52,29.59,10.0,South,24.2,34.5,N/A,,Overcast,180,2012-12-20 09:54:00
2:54 AM,46.9,36.0,66,29.62,10.0,WSW,15.0,23.0,0.01,Rain,Light Rain,240,2012-12-20 10:54:00
3:54 AM,44.1,39.9,85,29.63,8.0,West,13.8,21.9,0.04,Rain,Rain,260,2012-12-20 11:54:00
4:54 AM,39.9,37.9,93,29.65,6.0,West,13.8,-,0.13,Rain,Heavy Rain,270,2012-12-20 12:54:00
5:23 AM,39.2,35.6,87,29.64,6.0,West,11.5,-,0.11,Rain,Heavy Rain,260,2012-12-20 13:23:00
5:54 AM,37.9,36.0,93,29.67,6.0,WSW,11.5,-,0.21,Rain,Heavy Rain,240,2012-12-20 13:54:00
6:36 AM,39.2,37.4,93,29.66,6.0,South,8.1,-,0.10,Rain,Rain,180,2012-12-20 14:36:00
6:54 AM,39.0,37.9,96,29.68,9.0,SW,9.2,-,0.13,Rain,Rain,230,2012-12-20 14:54:00
7:54 AM,39.9,37.9,93,29.67,7.0,SSW,16.1,-,0.08,Rain,Light Rain,200,2012-12-20 15:54:00
8:24 AM,39.2,37.4,93,29.69,7.0,SSW,16.1,-,0.05,Rain,Rain,200,2012-12-20 16:24:00
8:54 AM,39.0,36.0,89,29.72,6.0,South,19.6,24.2,0.12,Rain,Rain,190,2012-12-20 16:54:00
9:54 AM,37.9,36.0,93,29.75,7.0,SSW,12.7,-,0.10,Rain,Rain,200,2012-12-20 17:54:00
10:54 AM,37.9,36.0,93,29.78,9.0,South,11.5,-,0.05,Rain,Light Rain,190,2012-12-20 18:54:00
11:38 AM,37.4,35.6,93,29.79,9.0,SSW,15.0,-,0.03,Rain,Light Rain,200,2012-12-20 19:38:00
11:54 AM,37.9,36.0,93,29.81,7.0,SSW,9.2,-,0.05,Rain,Rain,200,2012-12-20 19:54:00
12:54 PM,37.9,36.0,93,29.83,7.0,SSW,6.9,-,0.07,Rain,Rain,210,2012-12-20 20:54:00
1:54 PM,36.0,35.1,97,29.83,7.0,SSE,9.2,-,0.12,Rain,Light Rain,150,2012-12-20 21:54:00
2:06 PM,37.4,35.6,93,29.82,9.0,SE,15.0,-,0.00,Rain,Light Rain,140,2012-12-20 22:06:00
2:54 PM,37.9,36.0,93,29.83,10.0,SSE,13.8,-,0.00,,Mostly Cloudy,150,2012-12-20 22:54:00
3:54 PM,37.9,36.0,93,29.83,10.0,SSW,3.5,-,N/A,,Mostly Cloudy,210,2012-12-20 23:54:00
4:54 PM,37.9,36.0,93,29.84,10.0,SSW,5.8,-,N/A,,Mostly Cloudy,200,2012-12-21 00:54:00
5:54 PM,37.0,35.1,93,29.85,10.0,Calm,Calm,-,N/A,,Mostly Cloudy,0,2012-12-21 01:54:00
6:54 PM,36.0,35.1,97,29.84,10.0,West,3.5,-,N/A,,Mostly Cloudy,280,2012-12-21 02:54:00
7:54 PM,36.0,35.1,97,29.83,10.0,Calm,Calm,-,N/A,,Overcast,0,2012-12-21 03:54:00
8:54 PM,36.0,35.1,97,29.83,10.0,SSW,3.5,-,N/A,,Mostly Cloudy,210,2012-12-21 04:54:00
9:54 PM,34.0,34.0,100,29.83,10.0,WSW,3.5,-,N/A,,Mostly Cloudy,250,2012-12-21 05:54:00
10:54 PM,37.0,35.1,93,29.82,10.0,South,6.9,-,N/A,,Mostly Cloudy,170,2012-12-21 06:54:00
11:54 PM,34.0,34.0,100,29.80,10.0,South,5.8,-,N/A,,Partly Cloudy,190,2012-12-21 07:54:00